Location: Zilina
(49.2170°N, 18.7330°E)
Time: 16:00:00
(UTC+02:00)

ISS - Pass Details

Date: 21 April 2024
Orbit: 410 x 414 km, 51.6° (Epoch: 21 May)

Event Time Altitude Azimuth Distance (km) Brightness Sun altitude
Exits shadow 04:41:28 - 185° (S) 2,097 -0.6 -9.7°
Reaches altitude 10° 04:44:04 10° 154° (SSE) 1,471 -1.0 -9.3°
Maximum altitude 04:45:08 11° 135° (SE) 1,399 -0.9 -9.1°
Drops below altitude 10° 04:46:13 10° 116° (ESE) 1,474 -0.5 -9.0°
Sets 04:49:25 0° 81° (E) 2,302 1.5 -8.5°
